Location: Laura�t
(43.9341°N, 0.2497°E)
Time: 13:50:07
(UTC+00:00)

IRS-1A Rocket - Pass Details

Date: 03 March 2021
Orbit: 851 x 931 km, 99.2° (Epoch: 14 April)

Event Time Altitude Azimuth Distance (km) Brightness Sun altitude
Exits shadow 19:46:41 33° 146° (SE) 1,445 5.0 -21.7°
Maximum altitude 19:49:18 70° 72° (ENE) 931 4.2 -22.1°
Drops below altitude 10° 19:54:50 10° 350° (N) 2,512 6.9 -23.1°
Sets 19:57:12 0° 348° (NNW) 3,446 7.7 -23.5°
